CW9665 Weather Reports


time (UTC)temp
F
wind
direction
speed
knots
gust
knots
rain 1hr
in
rain 24hr
in
rain mn
in
humidity
%
barometer
mb
20260510225050 62 154 0.9 1.7 0.00 0.00 0.00 40 1025.1
20260510224049 62 178 1.7 1.7 0.00 0.00 0.00 41 1025.6
20260510223043 64 157 1.7 1.7 0.00 0.00 0.00 38 1025.2
20260510222043 62 168 3.5 3.5 0.00 0.00 0.00 41 1025.2
20260510221040 60 145 1.7 2.6 0.00 0.00 0.00 42 1025.3
20260510220039 58 158 0.9 0.9 0.00 0.00 0.00 45 1025.3
20260510215034 59 140 0.9 0.9 0.00 0.00 0.00 45 1025.2
20260510214032 60 150 0.9 0.9 0.00 0.00 0.00 44 1025.5
20260510213032 61 142 1.7 0.9 0.00 0.00 0.00 42 1025.7
20260510212031 59 148 0.9 0.9 0.00 0.00 0.00 45 1025.6
20260510211028 60 147 0.9 0.9 0.00 0.00 0.00 44 1025.8
20260510210026 59 130 0.9 1.7 0.00 0.00 0.00 44 1026.1
20260510205021 60 150 0.9 0.9 0.00 0.00 0.00 44 1026.2
20260510204020 60 146 1.7 2.6 0.00 0.00 0.00 44 1026.5
20260510203020 57 128 1.7 1.7 0.00 0.00 0.00 48 1026.5
20260510202016 56 146 0.9 0.9 0.00 0.00 0.00 50 1026.4
20260510201015 56 145 1.7 1.7 0.00 0.00 0.00 49 1026.4
20260510200015 56 138 0.9 0.9 0.00 0.00 0.00 49 1026.6
20260510195014 56 169 1.7 2.6 0.00 0.00 0.00 51 1026.5
20260510194012 54 147 0.9 0.9 0.00 0.00 0.00 54 1026.6
20260510193008 52 142 1.7 0.9 0.00 0.00 0.00 57 1026.7
20260510192005 52 149 1.7 1.7 0.00 0.00 0.00 59 1026.6
20260510191004 50 133 0.9 1.7 0.00 0.00 0.00 62 1027.0
20260510190005 50 145 0.0 0.0 0.00 0.00 0.00 61 1027.0
20260510185004 50 143 2.6 2.6 0.00 0.00 0.00 59 1026.7
20260510184001 51 164 0.0 0.0 0.00 0.00 0.00 60 1026.9
20260510182959 51 139 0.9 3.5 0.00 0.00 0.00 59 1026.7
20260510181956 51 142 1.7 1.7 0.00 0.00 0.00 58 1026.9
20260510180956 51 126 0.9 0.9 0.00 0.00 0.00 59 1026.9
20260510175956 50 146 0.9 1.7 0.00 0.00 0.00 62 1026.7
20260510174954 50 142 0.0 0.0 0.00 0.00 0.00 63 1027.1
20260510173949 50 145 2.6 2.6 0.00 0.00 0.00 62 1026.7
20260510172947 50 144 0.0 0.0 0.00 0.00 0.00 64 1026.7
20260510171945 48 144 2.6 2.6 0.00 0.00 0.00 67 1026.6
20260510170945 47 135 0.0 0.0 0.00 0.00 0.00 68 1026.6
20260510165943 48 131 0.9 0.9 0.00 0.00 0.00 66 1026.6
20260510164943 47 140 1.7 1.7 0.00 0.00 0.00 70 1026.7
20260510163940 46 138 0.9 0.9 0.00 0.00 0.00 74 1026.5
20260510162937 46 138 0.9 0.9 0.00 0.00 0.00 73 1026.4
20260510161936 45 146 0.0 0.0 0.00 0.00 0.00 76 1026.2
20260510160935 44 146 0.0 0.0 0.00 0.00 0.00 78 1026.4
20260510155930 44 147 0.9 0.9 0.00 0.00 0.00 78 1026.1
20260510154930 44 148 0.0 0.0 0.00 0.00 0.00 78 1026.2
20260510153925 44 142 0.9 0.9 0.00 0.00 0.00 78 1026.4
20260510152925 44 166 0.0 0.9 0.00 0.00 0.00 78 1026.0
20260510151924 45 166 0.0 0.0 0.00 0.00 0.00 77 1026.0
20260510150924 45 170 0.9 0.9 0.00 0.00 0.00 75 1026.0
20260510145922 45 171 0.0 0.0 0.00 0.00 0.00 77 1025.7
20260510144921 45 172 1.7 1.7 0.00 0.00 0.00 77 1026.1
20260510143918 44 138 0.9 0.9 0.00 0.00 0.00 80 1025.8
20260510142918 43 133 0.0 0.0 0.00 0.00 0.00 84 1026.0
20260510141917 41 133 0.0 0.0 0.00 0.00 0.00 86 1025.8
20260510140917 41 133 0.0 0.0 0.00 0.00 0.00 86 1026.2
20260510135913 41 100 1.7 1.7 0.00 0.00 0.00 87 1026.1
20260510134912 41 133 0.0 0.0 0.00 0.00 0.00 86 1025.8
20260510133911 41 132 0.0 0.0 0.00 0.00 0.00 87 1025.8
20260510132908 41 138 0.0 0.0 0.00 0.00 0.00 87 1025.7
20260510131909 41 138 0.0 0.0 0.00 0.00 0.00 87 1025.6
20260510130908 41 131 0.9 0.9 0.00 0.00 0.00 87 1025.2
20260510125908 41 141 0.0 0.0 0.00 0.00 0.00 87 1025.2
20260510124908 40 133 0.0 0.0 0.00 0.00 0.00 87 1025.3
20260510123905 40 137 0.0 0.0 0.00 0.00 0.00 87 1025.5
20260510122904 40 130 0.9 0.9 0.00 0.00 0.00 87 1025.1
20260510121901 40 140 0.9 0.9 0.00 0.00 0.00 88 1025.2
20260510120856 40 130 0.9 0.9 0.00 0.00 0.00 88 1025.0
20260510115854 40 132 0.0 0.0 0.00 0.00 0.00 88 1024.5
20260510114853 40 128 0.0 0.0 0.00 0.00 0.00 88 1024.7
20260510113851 40 136 0.9 0.9 0.00 0.00 0.00 89 1024.6
20260510112850 40 143 0.9 0.9 0.00 0.00 0.00 89 1024.6
20260510111848 40 139 0.0 0.9 0.00 0.00 0.00 91 1024.6
20260510110845 39 195 1.7 2.6 0.00 0.00 0.00 91 1024.5
20260510105845 39 64 2.6 3.5 0.00 0.00 0.00 91 1024.5
20260510104841 39 144 1.7 1.7 0.00 0.00 0.00 91 1024.3
20260510103840 39 63 1.7 2.6 0.00 0.00 0.00 91 1024.5
20260510102838 40 137 0.0 0.0 0.00 0.00 0.00 91 1024.5
20260510101837 40 138 0.9 0.9 0.00 0.00 0.00 90 1024.3
20260510100837 41 140 0.9 0.9 0.00 0.00 0.00 88 1024.3
20260510095838 41 132 0.0 0.0 0.00 0.00 0.00 87 1024.0
20260510094832 41 113 1.7 1.7 0.00 0.00 0.00 86 1024.0
20260510093830 41 130 0.0 0.0 0.00 0.00 0.00 85 1023.7
20260510092828 42 143 0.9 0.9 0.00 0.00 0.00 85 1024.0
20260510091826 42 121 0.9 0.9 0.00 0.00 0.00 85 1024.1
20260510090825 42 63 1.7 1.7 0.00 0.00 0.00 84 1024.1
20260510085824 42 110 0.9 0.9 0.00 0.00 0.00 84 1024.1
20260510084820 42 142 0.0 0.0 0.00 0.00 0.00 82 1023.8
20260510083820 42 139 0.0 0.0 0.00 0.00 0.00 81 1024.1
20260510082818 43 136 1.7 2.6 0.00 0.00 0.00 80 1024.1
20260510081814 43 136 0.0 0.0 0.00 0.00 0.00 79 1024.0
20260510080812 43 138 0.0 0.0 0.00 0.00 0.00 78 1024.3
20260510075810 44 130 0.9 0.9 0.00 0.00 0.00 77 1024.6
20260510074810 44 147 0.0 0.9 0.00 0.00 0.00 76 1024.5
20260510073809 44 146 1.7 1.7 0.00 0.00 0.00 76 1024.5
20260510072807 44 146 0.0 0.0 0.00 0.00 0.00 75 1024.6
20260510071806 44 147 0.9 0.9 0.00 0.00 0.00 74 1023.8
20260510070802 44 41 4.3 6.1 0.00 0.00 0.00 73 1023.4
20260510065758 45 24 6.1 7.8 0.00 0.00 0.00 72 1023.2
20260510064758 45 167 3.5 5.2 0.00 0.00 0.00 70 1023.2
20260510063757 46 28 6.1 7.8 0.00 0.00 0.00 67 1022.9
20260510062756 48 48 3.5 3.5 0.00 0.00 0.00 62 1022.4
20260510061753 51 143 2.6 2.6 0.00 0.00 0.00 43 1021.8
20260510060752 51 76 1.7 2.6 0.00 0.00 0.00 39 1021.0
20260510055751 50 144 0.9 0.9 0.00 0.00 0.00 42 1020.5
20260510054749 50 180 0.9 0.0 0.00 0.00 0.00 41 1020.3
20260510053745 51 180 0.9 0.9 0.00 0.00 0.00 40 1020.3
20260510052743 52 180 0.0 0.0 0.00 0.00 0.00 40 1020.3
20260510051742 52 182 0.0 0.0 0.00 0.00 0.00 38 1020.4
20260510050741 52 134 0.0 0.0 0.00 0.00 0.00 38 1020.4
20260510045741 53 134 0.0 0.0 0.00 0.00 0.00 39 1020.4
20260510044740 54 135 0.0 0.0 0.00 0.00 0.00 37 1020.5
20260510043739 54 138 1.7 2.6 0.00 0.00 0.00 35 1020.7
20260510042734 55 146 1.7 1.7 0.00 0.00 0.00 35 1020.3
20260510041732 56 160 0.9 0.9 0.00 0.00 0.00 34 1020.4
20260510040733 57 158 0.0 0.0 0.00 0.00 0.00 32 1021.0
20260510035730 57 326 1.7 1.7 0.00 0.00 0.00 31 1021.2
20260510034728 57 174 0.0 0.9 0.00 0.00 0.00 32 1021.3
20260510033728 57 142 0.0 0.0 0.00 0.00 0.00 31 1021.2
20260510032728 56 12 3.5 6.1 0.00 0.00 0.00 32 1020.8
20260510031725 56 335 3.5 3.5 0.00 0.00 0.00 33 1020.4
20260510030720 56 189 1.7 1.7 0.00 0.00 0.00 32 1019.9
20260510025716 57 154 0.0 0.0 0.00 0.00 0.00 31 1019.3
20260510024716 58 136 0.9 0.9 0.00 0.00 0.00 29 1019.4
20260510023714 59 138 1.7 1.7 0.00 0.00 0.00 27 1018.8
20260510022713 60 138 0.9 0.9 0.00 0.00 0.00 25 1018.3
20260510021709 60 143 2.6 2.6 0.00 0.00 0.00 25 1017.9
20260510020707 61 118 2.6 2.6 0.00 0.00 0.00 24 1018.3
20260510015704 62 112 6.1 7.8 0.00 0.00 0.00 22 1017.6
20260510014701 62 324 3.5 3.5 0.00 0.00 0.00 18 1017.1
20260510013659 62 128 1.7 1.7 0.00 0.00 0.00 20 1016.5
20260510012655 62 197 0.9 1.7 0.00 0.00 0.00 20 1017.0
20260510011652 62 156 0.0 0.9 0.00 0.00 0.00 20 1016.7
20260510010649 62 187 1.7 2.6 0.00 0.00 0.00 20 1015.9
20260510005649 62 183 1.7 1.7 0.00 0.00 0.00 20 1016.2
20260510004644 63 186 1.7 1.7 0.00 0.00 0.00 20 1016.0
20260510003639 63 179 2.6 2.6 0.00 0.00 0.00 20 1016.0
20260510002635 63 183 1.7 1.7 0.00 0.00 0.00 20 1016.1
20260510001634 63 183 2.6 2.6 0.00 0.00 0.00 22 1015.9
20260510000633 63 186 2.6 2.6 0.00 0.00 0.00 24 1016.1
20260509235632 63 199 3.5 3.5 0.00 0.00 0.00 23 1016.4
20260509234631 63 175 1.7 1.7 0.00 0.00 0.00 24 1016.2
20260509233626 62 199 3.5 3.5 0.00 0.00 0.00 23 1016.5
20260509232625 63 220 3.5 5.2 0.00 0.00 0.00 24 1016.5
20260509231624 64 176 6.1 7.8 0.00 0.00 0.00 22 1016.6
20260509230625 65 278 5.2 7.0 0.00 0.00 0.00 21 1016.4